This is the latest recevied weather packets stored in our database for station/object K5NOC-12. If no packets are shown the sender has not sent any weather packets the latest 10 day(s).
| Time | Temp. | Humidity | Pressure | Rain* | Wind** | Luminosity | Snow |
|---|---|---|---|---|---|---|---|
| 1777715796 | 6.67° C | 78% | 1022.3 hPa | 0 mm | - | - | - |
| 1777714896 | 6.67° C | 78% | 1022.3 hPa | 0 mm | - | - | - |
| 1777713996 | 6.67° C | 78% | 1022.3 hPa | 0 mm | - | - | - |
| 1777713095 | 6.67° C | 79% | 1022.2 hPa | 0 mm | - | - | - |
| 1777712195 | 6.67° C | 78% | 1022.1 hPa | 0 mm | - | - | - |
| 1777711295 | 6.67° C | 78% | 1022.1 hPa | 0 mm | - | - | - |
| 1777710395 | 6.67° C | 77% | 1022.1 hPa | 0 mm | - | - | - |
| 1777709495 | 7.22° C | 76% | 1022.1 hPa | 0 mm | - | - | - |
| 1777708595 | 7.22° C | 76% | 1022.4 hPa | 0 mm | - | - | - |
| 1777707695 | 7.78° C | 75% | 1022.4 hPa | 0 mm | - | - | - |
| 1777706794 | 7.78° C | 75% | 1022.6 hPa | 0 mm | - | - | - |
| 1777705894 | 7.78° C | 75% | 1022.6 hPa | 0 mm | - | - | - |
| 1777704994 | 7.78° C | 75% | 1022.7 hPa | 0 mm | - | - | - |
| 1777704094 | 7.78° C | 75% | 1022.7 hPa | 0 mm | - | - | - |
| 1777703194 | 8.33° C | 74% | 1022.8 hPa | 0 mm | - | - | - |
| 1777702293 | 8.33° C | 74% | 1022.9 hPa | 0 mm | - | - | - |
| 1777701393 | 8.33° C | 74% | 1022.9 hPa | 0 mm | - | - | - |
| 1777700493 | 8.33° C | 74% | 1022.9 hPa | 0 mm | - | - | - |
| 1777699593 | 8.33° C | 74% | 1022.9 hPa | 0 mm | - | - | - |
| 1777698692 | 8.33° C | 76% | 1022.8 hPa | 0 mm | - | - | - |
| 1777697792 | 7.78° C | 79% | 1022.8 hPa | 0 mm | - | - | - |
| 1777696892 | 7.78° C | 78% | 1022.6 hPa | 0 mm | - | - | - |
| 1777695992 | 7.78° C | 76% | 1022.6 hPa | 0 mm | - | - | - |
| 1777695092 | 8.33° C | 75% | 1022.5 hPa | 0 mm | - | - | - |
| 1777694192 | 8.89° C | 74% | 1022.2 hPa | 0 mm | - | - | - |
* Rain latest hour (hover to see other rain measurements)
** Current wind speed in m/s (hover to see current wind gust speed)